Wetbulb
70.67 70.26 69.20 69.60 69.71 69.80 69.40 69.72 69.66 69.58 69.72 69.11 67.80 67.34 68.46 69.99 70.69 69.74 68.75 68.38 68.02 68.35 68.61 68.16 69.17 69.98 69.82 69.92 70.16 69.89 69.04 68.68 65.71 66.90 66.99 67.53 67.15 67.17 65.75 66.16 66.53 66.45 64.48
70.84 70.45 69.17 70.10 69.82 69.25 68.99 69.23 69.74 68.72 69.20 69.18 66.83 65.87 66.03 67.32 68.77 69.29 67.78 67.78 66.97 66.82 67.36 67.18 67.59 69.21 69.33 70.19 69.80 68.67 66.01 65.74 64.38 63.09 65.03 65.76 64.25 62.09 61.80 60.97 62.02 62.24 62.01
70.88 70.61 69.16 69.61 70.22 69.33 68.99 68.74 68.91 68.63 68.31 68.08 67.97 66.92 66.37 66.01 65.39 64.87 64.46 63.64 62.88 64.20 66.43 67.08 66.79 67.21 66.35 66.19 65.90 65.71 65.62 65.98 65.78 64.40 63.13 64.58 63.11 61.09 58.84 58.63 58.65 59.62 60.32
70.79 70.45 69.64 69.03 70.10 70.13 68.95 68.33 68.11 68.20 67.62 67.37 67.38 67.16 66.73 66.52 66.58 65.65 64.63 63.24 61.81 61.58 61.75 61.79 61.93 61.97 62.44 63.20 63.22 62.70 64.01 64.19 63.95 63.41 62.59 62.22 61.12 60.57 60.23 58.08 56.27 57.37 56.47
70.32 69.91 70.25 69.50 69.74 69.13 67.11 67.14 67.22 67.04 66.68 66.97 66.81 66.50 66.14 64.75 63.24 64.08 64.10 63.64 60.60 59.13 58.69 59.43 60.15 60.72 60.76 61.19 60.67 59.85 61.64 62.72 62.54 62.46 61.87 61.96 61.12 60.57 59.47 58.02 56.13 55.56 55.58
69.79 69.84 70.85 70.01 69.45 68.32 65.12 66.52 66.20 65.72 65.58 65.76 65.03 64.66 64.05 62.25 57.49 59.35 62.90 62.15 61.14 60.56 58.75 57.92 56.07 56.11 56.72 56.81 57.28 57.68 58.63 59.95 60.75 60.69 59.28 57.78 54.66 56.15 57.37 58.68 55.75 55.14 52.71
69.18 70.01 70.38 70.06 69.15 67.17 64.68 65.60 64.95 63.69 63.05 62.50 63.16 63.23 61.85 60.98 54.90 55.89 59.00 61.69 60.12 59.29 59.11 57.60 55.10 53.82 53.83 53.80 53.89 54.42 54.91 55.95 56.89 57.42 53.91 53.53 52.97 52.64 56.49 56.61 55.99 53.48 52.45
64.90 67.97 70.26 69.38 68.27 64.99 65.19 64.38 63.14 63.50 61.67 59.78 59.55 59.41 59.92 56.56 52.23 53.08 56.45 61.09 58.05 57.01 56.80 57.91 57.85 56.92 55.74 56.04 55.54 54.65 54.17 55.01 56.01 55.55 55.59 54.69 52.93 55.24 56.23 56.09 52.80 51.51 52.12
61.84 62.68 65.45 67.74 65.83 64.32 63.64 61.99 61.56 61.35 61.31 59.38 57.99 57.90 58.37 56.60 50.34 51.43 57.26 58.65 56.40 56.56 56.85 57.69 57.34 56.18 52.07 53.35 56.35 54.89 54.06 52.59 50.96 51.39 51.37 51.56 51.64 51.71 53.54 55.64 52.42 54.99 52.61
58.55 58.49 59.78 65.83 63.92 62.69 61.29 59.76 60.03 60.74 59.88 59.05 55.42 54.95 52.83 54.64 48.35 49.45 55.48 57.14 55.95 55.47 56.28 54.99 50.12 53.04 48.74 50.01 57.24 56.29 53.82 53.30 53.09 53.04 52.99 52.86 52.68 50.77 51.72 54.34 52.71 51.47 51.92
55.40 55.83 56.13 57.11 57.89 57.49 57.20 58.36 57.56 57.78 56.85 53.72 53.08 52.99 52.59 52.21 50.89 47.76 49.60 54.57 53.53 52.86 52.68 51.31 50.41 46.50 45.20 46.09 49.47 53.71 51.78 51.09 51.05 49.95 49.33 49.84 49.44 49.17 48.87 51.48 53.36 51.63 50.57
54.24 53.83 53.39 52.84 52.84 52.72 52.87 53.50 53.70 55.83 55.46 53.39 51.60 49.40 51.75 50.91 49.23 47.64 47.79 49.27 51.35 49.26 48.25 47.79 46.54 43.70 43.06 43.67 45.71 44.80 46.18 50.23 51.36 50.23 48.67 47.61 47.61 47.83 48.76 49.96 52.47 53.46 53.89
52.21 51.70 51.88 51.70 51.66 51.79 51.43 51.55 50.74 52.00 50.94 50.26 48.49 48.69 48.92 50.33 50.67 47.10 46.96 47.85 48.97 48.82 48.63 45.90 44.92 43.07 43.66 45.56 45.20 45.42 47.54 50.51 49.32 47.61 46.85 46.60 46.92 48.45 49.79 50.14 50.95 53.57 54.13
50.45 50.58 50.98 50.51 50.37 50.62 50.58 51.42 51.22 49.96 48.96 48.22 48.57 48.73 50.03 50.43 50.79 51.22 50.83 49.21 49.25 49.45 48.87 49.40 46.76 46.79 45.79 47.95 49.28 49.03 49.25 48.96 47.98 47.13 46.78 47.20 47.84 47.51 47.03 48.46 47.45 48.81 49.09
50.16 49.57 48.98 48.64 47.86 45.85 44.19 46.41 48.22 48.40 49.47 49.09 49.27 50.62 48.79 47.90 48.11 46.14 46.81 46.86 48.14 46.97 49.61 49.99 49.09 48.51 47.99 47.99 48.06 48.25 48.49 48.59 47.41 47.58 46.85 46.20 46.14 46.52 46.30 47.84 47.28 47.26 45.84
51.58 50.40 49.61 47.55 45.79 44.98 44.34 42.09 41.97 41.92 41.00 40.33 41.44 46.14 45.42 42.65 39.76 39.20 39.12 39.33 39.73 40.94 48.79 48.50 47.75 47.31 46.44 46.68 46.82 46.65 47.44 46.67 47.01 46.62 46.11 45.35 44.67 45.08 45.90 46.67 46.94 46.07 45.39
52.49 51.20 48.68 48.68 47.51 43.84 47.25 45.91 42.55 40.97 39.76 38.56 38.18 38.44 39.51 39.16 37.83 37.95 37.74 37.97 38.99 42.53 48.24 47.79 47.15 46.86 46.50 46.55 46.94 46.87 45.97 46.19 47.27 46.02 45.21 44.69 44.92 44.90 46.53 44.85 45.68 46.41 45.83
48.33 44.79 46.87 46.01 45.88 45.87 46.25 46.74 48.30 48.39 47.84 46.94 39.27 40.60 36.94 37.04 37.66 37.63 38.55 41.11 46.72 46.69 47.76 46.78 46.53 46.86 46.55 46.03 46.41 46.28 45.66 45.62 45.75 45.83 45.43 44.72 44.53 44.63 44.85 44.79 45.33 44.50 45.55
46.99 46.59 46.62 46.10 46.00 45.35 45.83 45.82 46.26 46.69 46.97 46.62 46.64 42.20 41.37 37.10 37.22 37.70 38.92 49.46 47.17 46.69 46.99 46.65 46.80 45.88 46.07 46.81 46.43 47.07 47.55 46.67 46.52 46.27 46.10 45.69 45.61 45.61 45.51 45.57 45.50 38.98 40.12
47.03 44.39 47.19 47.47 46.61 46.68 46.48 46.76 46.83 46.80 46.61 46.97 47.34 47.53 47.23 45.17 47.07 47.78 48.59 48.78 47.72 47.51 47.04 46.71 46.49 46.08 45.97 46.47 46.82 47.36 46.54 45.52 45.57 45.68 46.76 46.61 46.55 46.01 45.58 44.94 45.39 44.04 45.61
49.43 48.02 46.18 49.35 49.39 49.12 48.58 47.93 47.62 47.63 47.18 46.97 47.38 46.47 38.48 47.50 47.80 47.87 47.96 48.26 47.40 47.57 47.13 46.99 46.69 46.06 46.21 46.68 47.08 46.86 47.25 46.94 45.97 45.95 45.63 45.90 46.61 45.00 45.78 45.68 45.40 46.03 46.10
50.45 50.47 50.33 51.05 50.48 49.85 50.01 50.18 48.86 48.06 47.62 47.23 47.44 46.42 37.74 45.70 47.32 47.70 47.55 47.40 47.75 48.17 48.05 47.50 46.94 46.93 46.98 46.63 46.61 46.55 46.34 46.16 46.22 45.48 45.28 45.13 45.05 44.84 44.24 44.17 44.56 44.60 44.75
52.55 52.11 51.97 51.77 51.13 48.99 49.11 49.78 49.59 49.19 48.90 48.51 48.26 47.37 46.75 46.60 47.41 47.96 48.05 48.11 47.83 47.37 47.22 47.29 47.01 46.74 47.33 47.63 48.00 47.55 46.19 45.98 46.53 46.61 45.35 44.79 44.32 43.29 42.79 43.32 43.41 43.14 43.21
53.60 53.58 53.40 53.76 53.87 53.16 52.70 52.02 51.66 46.33 50.12 50.28 50.01 49.42 48.97 48.40 48.45 48.94 48.55 48.27 47.92 48.18 48.38 48.00 47.60 47.11 47.57 47.91 48.12 47.96 47.27 46.90 47.09 46.44 45.88 44.64 43.49 40.54 41.99 42.95 43.11 42.48 43.03
53.61 53.64 54.45 54.91 53.75 53.06 53.27 52.75 52.68 52.29 51.80 50.79 50.81 50.69 50.65 50.28 49.01 49.19 49.38 48.96 48.56 48.40 48.47 48.33 48.22 48.09 48.07 48.42 48.01 47.05 40.72 33.59 43.32 39.96 45.41 44.08 41.97 41.15 41.73 42.71 42.91 43.04 42.44
54.38 53.95 51.68 52.99 53.00 53.06 52.57 52.20 51.98 51.71 51.32 51.81 51.86 51.56 51.38 50.85 50.02 49.08 49.39 48.91 48.62 48.61 48.62 48.66 48.77 48.92 48.87 48.74 48.35 42.77 33.70 31.41 38.22 32.59 43.60 42.79 42.17 41.67 41.21 42.51 42.76 42.93 42.21
MSLP
1014.61 1015.00 1015.41 1015.56 1015.64 1015.51 1015.55 1015.49 1015.38 1015.35 1015.17 1014.89 1014.83 1014.82 1014.65 1014.32 1014.21 1014.47 1014.74 1014.86 1015.09 1015.26 1015.51 1015.68 1015.65 1015.81 1015.85 1015.96 1016.13 1016.26 1016.30 1016.37 1016.34 1016.92 1017.14 1017.15 1017.24 1017.26 1017.41 1017.48 1017.57 1017.63 1017.62
1014.49 1015.03 1015.32 1015.50 1015.69 1015.58 1015.67 1015.66 1015.56 1015.58 1015.41 1015.29 1015.28 1015.21 1015.08 1014.94 1014.81 1014.70 1014.85 1015.03 1015.17 1015.31 1015.47 1015.68 1015.72 1015.81 1015.90 1016.02 1016.13 1016.34 1016.67 1016.77 1016.83 1016.65 1017.22 1017.02 1017.47 1018.04 1018.06 1018.16 1018.13 1018.23 1018.05
1014.44 1014.77 1014.99 1015.09 1015.52 1015.62 1015.98 1016.02 1015.89 1015.83 1015.75 1015.73 1015.65 1015.51 1015.49 1015.51 1015.49 1015.53 1015.64 1015.86 1015.95 1016.00 1015.89 1015.92 1016.04 1016.03 1016.12 1016.26 1016.32 1016.36 1016.64 1016.63 1016.90 1017.04 1017.14 1017.20 1017.66 1018.36 1018.54 1018.73 1018.70 1018.74 1018.53
1014.15 1014.30 1014.69 1015.01 1015.61 1015.93 1016.17 1016.30 1016.26 1016.31 1016.18 1016.12 1016.18 1016.03 1016.06 1015.97 1015.96 1016.11 1016.30 1016.51 1016.64 1016.66 1016.46 1016.65 1016.70 1016.81 1016.44 1016.73 1016.93 1016.88 1016.83 1016.81 1017.04 1017.27 1017.52 1017.67 1018.01 1018.38 1018.60 1018.76 1019.30 1019.30 1019.38
1014.25 1014.33 1014.62 1015.17 1015.75 1016.12 1016.58 1016.62 1016.69 1016.71 1016.75 1016.63 1016.67 1016.66 1016.66 1016.74 1016.87 1016.90 1017.00 1017.10 1017.37 1017.53 1017.62 1017.62 1017.69 1017.71 1017.50 1017.48 1017.48 1017.49 1017.32 1017.44 1017.69 1017.77 1017.91 1018.11 1018.35 1018.53 1018.78 1019.08 1019.47 1019.96 1020.17
1014.43 1014.36 1014.49 1015.13 1015.62 1016.19 1016.83 1016.87 1017.03 1016.95 1016.99 1017.12 1017.22 1017.24 1017.30 1017.56 1017.77 1017.59 1017.58 1017.80 1017.95 1018.06 1018.24 1018.51 1018.56 1018.65 1018.66 1018.53 1018.44 1018.34 1018.26 1018.24 1018.23 1018.27 1018.69 1018.93 1019.58 1019.53 1019.37 1019.20 1019.74 1020.13 1020.59
1014.78 1014.70 1014.71 1015.01 1015.46 1016.14 1016.83 1016.97 1017.23 1017.39 1017.54 1017.58 1017.71 1017.87 1018.08 1018.32 1018.42 1018.33 1018.29 1018.32 1018.46 1018.67 1018.80 1018.94 1019.07 1019.24 1019.23 1019.32 1019.25 1019.01 1018.98 1018.97 1018.86 1019.05 1019.55 1019.92 1020.16 1020.10 1019.84 1019.80 1020.04 1020.40 1020.91
1015.29 1015.08 1014.74 1015.01 1015.51 1016.30 1016.81 1017.27 1017.52 1017.65 1017.86 1018.08 1018.36 1018.54 1018.67 1019.20 1019.21 1019.06 1018.89 1018.79 1018.92 1019.15 1019.31 1019.36 1019.46 1019.68 1019.89 1019.76 1019.66 1019.68 1019.78 1019.95 1019.92 1019.89 1020.23 1020.62 1020.66 1020.37 1020.28 1020.30 1020.63 1020.96 1021.37
1015.88 1015.59 1015.21 1015.13 1015.78 1016.38 1016.88 1017.58 1017.83 1017.97 1018.28 1018.68 1018.97 1019.18 1019.26 1019.65 1019.79 1019.60 1019.23 1019.32 1019.60 1019.73 1019.91 1020.02 1020.13 1020.48 1020.84 1020.59 1020.19 1020.32 1020.55 1020.74 1021.28 1021.33 1021.31 1021.21 1021.15 1020.94 1020.53 1020.09 1020.37 1020.22 1020.59
1016.69 1016.40 1015.92 1015.41 1015.82 1016.41 1017.13 1017.93 1018.28 1018.34 1018.57 1018.92 1019.50 1019.85 1020.06 1020.11 1020.33 1020.03 1019.56 1019.44 1019.84 1020.17 1020.49 1020.93 1021.28 1021.38 1021.38 1021.26 1020.84 1020.73 1020.84 1021.11 1021.18 1021.27 1021.36 1021.31 1021.32 1021.39 1021.25 1020.89 1020.55 1020.52 1020.56
1017.33 1016.87 1016.52 1016.45 1016.65 1016.90 1017.65 1018.10 1018.43 1018.61 1019.10 1019.41 1019.72 1020.42 1020.71 1020.68 1020.76 1020.79 1020.52 1020.30 1020.42 1020.56 1020.94 1021.54 1022.06 1022.14 1022.04 1021.78 1021.45 1021.69 1021.72 1021.77 1021.76 1021.79 1021.63 1021.55 1021.55 1021.61 1021.59 1021.77 1021.66 1021.14 1021.16
1017.68 1017.62 1017.59 1017.56 1017.60 1017.94 1018.31 1018.77 1019.11 1019.06 1019.50 1020.02 1020.39 1020.79 1020.96 1021.10 1021.26 1021.41 1021.23 1021.18 1021.35 1021.50 1021.89 1022.48 1022.97 1022.85 1022.85 1022.60 1022.26 1022.55 1022.28 1021.65 1021.64 1021.70 1021.76 1021.83 1021.78 1021.84 1022.03 1022.23 1022.37 1022.12 1022.01
1018.17 1018.29 1018.45 1018.49 1018.51 1018.66 1018.90 1019.28 1019.68 1019.84 1020.23 1020.85 1020.69 1021.35 1021.64 1021.46 1021.75 1021.55 1021.74 1021.66 1021.89 1022.25 1022.72 1023.12 1023.38 1023.12 1022.99 1022.79 1023.01 1022.73 1022.08 1021.96 1021.91 1022.04 1022.26 1022.33 1022.46 1022.60 1022.43 1022.37 1022.58 1022.71 1022.75
1018.55 1018.79 1019.05 1019.26 1019.45 1019.54 1019.70 1020.06 1020.22 1020.41 1020.71 1021.06 1021.58 1021.75 1021.85 1022.08 1022.45 1022.63 1022.53 1022.63 1022.52 1022.69 1023.03 1022.91 1023.42 1023.41 1023.23 1023.11 1022.91 1022.71 1022.58 1022.64 1022.65 1022.71 1022.78 1022.88 1022.69 1022.62 1022.67 1022.68 1022.46 1022.44 1022.26
1018.93 1019.37 1019.65 1020.03 1020.08 1020.49 1020.92 1021.09 1021.19 1021.46 1021.39 1021.49 1021.90 1021.94 1022.08 1022.75 1023.01 1023.10 1022.82 1023.18 1023.25 1023.19 1023.12 1023.34 1023.27 1023.27 1023.12 1023.05 1023.24 1023.23 1023.15 1023.18 1023.16 1023.25 1023.13 1023.05 1023.01 1022.95 1023.09 1023.06 1022.93 1022.71 1022.56
1019.13 1019.68 1020.01 1020.21 1020.52 1020.94 1021.23 1021.75 1021.90 1022.37 1021.98 1022.20 1022.20 1022.30 1022.86 1023.28 1023.35 1023.38 1023.46 1023.79 1023.67 1023.76 1023.16 1023.10 1023.33 1023.38 1023.23 1023.26 1023.34 1023.41 1023.58 1023.67 1023.65 1023.66 1023.58 1023.43 1023.39 1023.36 1023.33 1023.38 1023.28 1023.07 1022.96
1019.25 1019.77 1020.26 1020.46 1020.83 1021.05 1021.05 1021.44 1022.16 1022.93 1022.83 1023.00 1023.13 1023.12 1023.18 1023.68 1023.72 1023.62 1023.81 1024.06 1024.03 1023.70 1023.10 1023.16 1023.47 1023.51 1023.55 1023.62 1023.66 1023.59 1023.75 1024.07 1024.19 1023.91 1023.89 1023.94 1023.84 1023.83 1023.60 1023.54 1023.45 1023.43 1023.35
1019.92 1020.33 1020.20 1020.20 1020.29 1020.52 1020.76 1021.06 1021.42 1021.78 1022.40 1023.16 1023.90 1023.92 1024.23 1024.16 1024.08 1024.10 1023.85 1023.68 1023.67 1023.49 1023.30 1023.22 1023.51 1023.80 1023.87 1023.91 1023.88 1023.86 1024.08 1024.16 1024.12 1024.14 1024.21 1024.23 1024.18 1024.04 1023.87 1023.83 1023.85 1023.92 1023.72
1020.06 1020.13 1020.36 1020.43 1020.38 1020.74 1020.99 1021.14 1021.42 1021.79 1022.15 1022.74 1023.40 1023.93 1023.93 1024.43 1024.50 1024.48 1024.09 1023.34 1023.03 1023.04 1023.24 1023.24 1023.56 1023.80 1023.98 1024.11 1024.16 1024.21 1024.15 1024.06 1024.18 1024.27 1024.37 1024.40 1024.40 1024.18 1024.10 1024.03 1023.93 1024.61 1024.46
1020.42 1020.74 1020.55 1020.56 1020.71 1020.78 1021.02 1021.14 1021.40 1021.63 1022.01 1022.35 1022.64 1022.85 1023.31 1024.03 1023.78 1023.79 1023.58 1023.47 1023.09 1022.89 1023.20 1023.18 1023.54 1023.83 1023.98 1024.06 1024.04 1024.06 1024.03 1024.27 1024.33 1024.28 1024.42 1024.55 1024.57 1024.41 1024.14 1024.10 1023.92 1023.90 1023.81
1020.04 1020.50 1020.78 1020.49 1020.57 1020.74 1020.93 1021.10 1021.30 1021.51 1021.75 1022.00 1022.42 1022.81 1023.43 1023.00 1022.87 1022.76 1022.87 1022.87 1022.93 1022.68 1022.99 1023.10 1023.27 1023.53 1023.67 1023.86 1023.80 1023.85 1023.82 1023.81 1024.07 1024.21 1024.39 1024.52 1024.52 1024.23 1024.30 1024.16 1023.97 1023.81 1023.64
1019.95 1020.00 1020.22 1020.23 1020.47 1020.72 1020.80 1021.02 1021.21 1021.38 1021.62 1021.59 1022.03 1022.40 1023.08 1022.85 1022.62 1022.30 1022.47 1022.62 1022.54 1022.73 1022.90 1023.06 1022.93 1022.92 1022.97 1023.21 1023.46 1023.48 1023.48 1023.60 1023.83 1024.09 1024.23 1024.33 1024.37 1024.23 1024.15 1023.98 1023.84 1023.74 1023.57
1019.76 1019.86 1020.00 1020.10 1020.27 1020.55 1020.74 1020.70 1020.92 1021.18 1021.22 1021.27 1021.41 1021.61 1021.94 1022.08 1021.95 1022.03 1022.01 1022.12 1022.42 1022.72 1023.01 1023.07 1022.81 1022.55 1022.72 1023.03 1023.19 1023.27 1023.17 1023.22 1023.38 1023.70 1023.95 1024.06 1024.13 1024.04 1023.97 1023.78 1023.67 1023.53 1023.46
1019.54 1019.51 1019.42 1019.40 1019.53 1019.79 1019.93 1019.97 1020.22 1020.66 1020.53 1020.57 1020.60 1020.78 1020.91 1021.18 1021.19 1021.32 1021.52 1021.70 1022.16 1022.30 1022.47 1022.51 1022.46 1022.25 1022.46 1022.80 1022.87 1022.95 1023.01 1023.23 1023.44 1023.58 1023.89 1023.85 1023.86 1024.04 1023.80 1023.67 1023.52 1023.46 1023.41
1019.43 1019.44 1019.13 1018.97 1019.01 1019.08 1019.18 1019.40 1019.49 1019.57 1019.71 1019.91 1019.92 1019.99 1020.14 1020.34 1020.51 1020.52 1020.80 1021.05 1021.41 1021.63 1021.74 1021.89 1021.94 1022.02 1022.22 1022.31 1022.33 1022.54 1022.90 1023.58 1023.58 1023.65 1023.79 1023.77 1023.71 1023.76 1023.55 1023.42 1023.28 1023.24 1023.31
1019.16 1019.28 1019.37 1018.98 1018.86 1018.92 1018.95 1018.99 1018.99 1019.08 1019.18 1019.24 1019.42 1019.48 1019.52 1019.61 1019.69 1019.82 1020.03 1020.29 1020.44 1020.59 1020.80 1021.01 1021.20 1021.39 1021.50 1021.69 1021.89 1022.17 1022.95 1023.48 1023.67 1023.95 1023.53 1023.47 1023.38 1023.37 1023.28 1023.21 1023.16 1023.00 1022.92
Wind_Speed
5 4 3 1 1 3 4 5 6 6 6 6 6 5 6 4 3 3 3 3 4 4 4 5 7 6 6 6 6 4 4 2 3 2 1 0 2 4 5 6 7 7 6
5 4 4 2 2 3 4 5 5 5 6 7 6 6 6 6 5 5 3 1 2 3 3 5 5 3 6 6 5 5 3 2 1 4 2 1 4 5 5 6 6 6 6
6 5 4 3 2 3 3 4 5 6 7 8 8 9 8 8 8 8 8 8 7 7 6 4 4 2 2 1 1 4 2 2 3 2 2 1 3 2 4 5 5 6 7
6 6 5 4 3 2 3 4 6 6 7 9 9 10 10 9 9 8 9 9 9 8 9 8 8 6 6 5 4 5 2 3 3 3 2 2 3 2 2 2 4 5 6
6 7 6 5 4 4 4 5 6 6 6 7 8 9 9 9 7 9 9 10 10 9 9 9 10 13 17 12 4 5 5 3 2 2 2 2 2 2 2 2 3 4 6
8 9 7 7 7 6 5 5 6 7 8 8 8 9 9 7 9 10 8 8 8 8 8 9 7 11 14 16 16 17 10 2 2 1 3 4 3 3 2 1 4 2 3
7 9 8 8 10 9 7 7 6 7 7 8 8 9 9 9 10 12 10 9 9 9 8 8 8 8 9 10 14 16 19 20 15 5 6 4 3 4 3 3 3 3 3
4 7 9 10 11 10 9 7 7 7 7 7 7 7 8 7 10 10 9 10 10 11 10 10 10 11 10 11 13 15 16 15 13 10 11 8 3 4 6 3 4 6 4
4 5 6 9 10 10 10 8 6 7 7 6 6 7 8 8 7 5 8 10 11 11 10 10 10 10 8 6 11 12 12 13 13 14 14 14 17 16 10 3 4 1 5
5 5 7 6 9 10 10 9 6 7 8 8 8 8 8 8 6 5 6 8 10 9 10 12 15 10 9 8 8 8 11 9 9 9 10 10 12 12 14 11 6 5 3
4 5 6 7 6 8 9 8 8 9 9 7 9 7 8 6 7 6 6 8 7 7 7 7 7 11 11 11 9 8 8 8 8 7 7 8 8 9 8 8 8 6 5
5 6 7 7 6 6 8 8 6 9 9 9 9 6 7 6 8 9 12 11 9 7 7 6 7 13 12 11 9 8 6 5 6 6 7 7 7 7 7 7 8 7 8
7 7 7 7 7 7 8 7 6 6 6 5 6 4 4 5 6 12 12 13 12 9 6 8 9 9 7 11 11 7 4 5 6 6 7 7 6 6 4 4 6 6 7
8 7 7 6 7 7 5 3 4 5 5 6 4 4 5 6 6 5 6 7 10 10 10 7 9 10 10 7 6 7 7 6 6 6 6 5 5 5 6 4 5 4 4
8 7 7 6 8 8 7 5 4 4 3 5 4 4 6 5 4 4 6 4 3 6 7 5 5 5 6 6 6 6 5 5 5 5 5 5 5 5 5 4 4 4 4
8 6 6 6 7 6 7 7 17 10 11 10 8 6 5 7 6 8 9 8 8 5 4 4 4 4 5 5 4 4 4 4 5 5 5 5 5 5 4 4 4 4 4
8 8 7 6 6 6 7 8 8 7 14 13 10 9 7 7 6 10 10 9 5 3 4 5 4 4 4 3 2 3 4 5 4 5 5 5 4 4 2 4 3 3 3
9 6 7 7 7 6 6 6 5 6 6 7 8 6 7 5 7 7 8 9 6 3 4 4 4 3 2 3 3 3 4 4 4 3 4 4 4 3 2 3 2 3 3
8 7 7 7 7 7 6 6 6 5 5 6 5 4 6 6 6 4 4 2 4 4 4 4 4 3 3 2 3 2 2 3 2 3 3 3 3 2 2 1 1 1 4
8 8 6 6 6 6 5 5 5 5 5 5 4 4 4 4 5 6 5 4 3 3 3 3 4 4 3 3 3 2 4 4 4 4 2 1 1 2 1 1 2 3 1
6 6 5 5 4 4 4 4 4 3 3 4 4 4 5 3 3 4 4 5 4 3 5 4 5 5 5 4 3 3 2 2 4 3 3 3 1 3 2 2 2 2 2
4 4 4 2 3 3 3 3 3 3 4 4 4 5 6 5 5 4 4 5 4 4 4 5 5 6 6 5 4 5 3 3 3 4 5 4 3 3 3 3 3 3 3
4 4 4 4 4 4 5 6 6 6 6 6 6 6 7 7 6 6 6 5 5 5 5 5 5 5 5 4 5 5 6 5 5 4 5 5 5 4 4 4 4 4 4
5 5 5 5 5 6 7 7 7 8 7 7 7 7 7 8 8 9 7 6 6 7 6 6 5 7 5 5 5 5 5 5 4 5 7 6 5 4 5 5 5 5 5
6 7 7 7 7 7 6 7 8 6 6 7 7 8 8 8 8 9 8 7 8 8 8 7 7 9 11 10 7 6 3 5 6 1 6 6 6 6 6 6 5 5 6
1 2 4 5 5 5 5 5 5 5 6 6 7 8 9 9 10 9 9 9 9 9 10 8 10 14 13 11 12 8 10 8 8 8 6 6 6 6 7 8 7 5 6
Wind_Direction
153 122 130 61 28 44 28 18 27 17 17 35 32 14 350 315 267 163 193 200 209 223 228 246 247 229 225 221 223 225 220 226 254 149 102 88 66 79 53 56 44 47 30
154 163 165 159 350 51 41 36 35 33 36 37 58 49 44 37 22 22 61 112 189 230 242 239 250 226 214 208 203 181 194 221 189 203 194 162 77 37 60 70 51 39 49
174 192 184 183 239 79 55 65 57 57 56 53 52 55 57 56 59 58 65 64 52 46 37 43 26 302 164 132 178 177 188 195 212 205 160 259 95 153 75 48 48 51 45
196 201 215 205 234 149 116 99 84 75 77 72 61 64 58 59 64 72 73 71 65 59 62 61 57 54 50 58 48 27 360 113 87 100 88 73 90 81 98 107 74 44 57
219 220 220 198 195 156 133 124 106 94 79 74 72 66 64 55 53 76 71 77 74 67 55 56 59 65 64 64 63 32 35 60 89 73 76 69 49 54 23 69 80 82 55
233 231 214 195 178 175 157 144 126 109 95 81 75 73 67 62 50 62 82 83 76 75 73 67 58 60 62 69 71 67 56 31 63 48 31 55 34 13 358 61 131 157 108
243 235 213 197 185 171 164 156 142 119 103 92 82 78 73 72 56 64 61 76 76 67 67 71 72 72 73 75 65 62 58 56 58 73 81 47 54 351 329 58 60 61 74
276 261 212 201 185 161 166 163 145 134 124 108 94 88 88 69 65 73 83 90 83 76 75 79 76 75 68 85 81 74 66 59 60 71 70 64 39 38 46 42 95 97 85
321 321 305 180 171 162 165 163 146 132 121 107 97 98 97 92 72 62 100 98 91 82 75 69 81 82 59 44 91 91 87 86 72 70 72 66 56 45 36 60 45 319 108
333 326 302 181 165 159 146 151 134 125 119 120 99 87 88 96 57 71 113 114 108 101 92 80 58 70 56 24 91 100 93 84 84 84 76 72 61 59 41 43 45 55 70
0 22 39 52 92 120 127 141 139 132 122 104 101 83 74 69 72 51 74 104 111 96 85 75 62 58 60 60 60 86 91 104 93 80 73 69 61 56 53 45 44 45 85
56 60 64 72 84 96 109 111 119 130 126 123 117 105 93 78 63 70 76 78 85 98 94 91 83 69 58 52 70 72 93 127 94 81 71 58 51 46 53 47 47 47 57
73 67 63 74 86 90 97 96 86 84 101 103 106 92 92 83 90 90 91 92 84 95 94 98 87 84 101 83 53 52 89 79 80 77 69 60 49 45 56 79 84 90 80
81 73 72 72 74 70 72 66 105 113 121 116 104 109 112 106 101 91 90 87 107 111 125 91 85 88 77 82 93 76 68 65 71 74 68 60 57 52 56 36 54 55 72
94 94 90 86 88 78 58 42 56 43 88 122 120 130 125 122 114 103 111 106 117 99 129 136 111 104 91 84 77 75 85 85 77 68 65 55 48 50 58 50 37 44 47
113 110 106 108 100 104 103 86 56 60 70 72 70 102 73 84 117 97 89 91 105 170 150 130 118 100 86 76 78 90 84 93 81 77 60 44 39 40 56 61 39 34 42
108 114 113 117 116 112 106 101 96 68 69 57 63 75 73 119 115 117 117 106 79 225 136 120 120 111 91 82 82 83 107 91 104 78 57 49 47 68 24 50 42 31 44
101 94 115 109 104 103 100 101 107 113 115 111 58 57 61 73 127 134 137 143 134 127 133 131 130 126 120 124 131 116 124 137 113 99 73 63 55 36 53 56 44 13 6
122 109 104 100 90 92 98 97 98 106 113 121 137 157 100 86 114 128 293 193 140 146 156 146 146 149 145 147 142 168 187 152 133 136 99 64 42 13 62 15 66 324 301
106 88 90 106 116 110 114 110 109 110 127 138 159 143 150 185 176 189 207 210 206 190 198 181 168 175 170 172 171 171 186 190 186 193 160 100 24 352 349 311 342 334 305
124 132 95 122 114 108 107 111 115 130 141 160 176 154 25 271 197 193 208 206 234 222 225 223 205 198 200 198 200 204 203 196 203 211 217 221 282 327 301 240 286 285 203
150 151 164 173 159 181 182 181 186 195 203 190 199 180 180 241 241 230 228 237 229 231 234 231 234 223 216 218 215 236 231 232 218 229 234 239 255 281 271 232 243 231 224
195 201 215 232 238 231 221 233 223 221 225 218 219 212 200 225 236 244 247 238 231 223 218 227 241 220 215 222 235 245 263 257 259 241 242 237 248 263 238 229 233 228 235
238 250 256 265 262 260 247 232 228 224 235 228 224 225 227 232 237 238 244 231 223 224 220 223 233 234 211 228 223 239 248 251 242 222 229 242 253 207 238 229 226 230 253
245 246 260 279 293 289 273 249 244 237 223 226 238 232 230 232 236 231 229 229 225 225 224 224 229 228 230 233 242 241 141 149 233 219 214 239 246 234 239 233 226 237 251
183 292 297 294 295 293 288 270 248 232 239 243 246 249 242 236 237 237 228 224 223 226 227 223 229 232 235 234 233 216 150 178 200 215 237 227 229 229 227 225 218 247 235